Weather History for San Jose, Costa Rica

Change the Weather History Date:

Tuesday, June 4, 2013

  Actual Average Record
Temperature  
Mean Temperature 74 °F -  
Max Temperature 84 °F 80 °F 84 °F (1999)
Min Temperature 65 °F 65 °F 65 °F (2013)
Cooling Degree Days 10    
Growing Degree Days 24 (Base 50)    
Moisture  
Dew Point 66 °F    
Average Humidity 83    
Maximum Humidity 100    
Minimum Humidity 41    
Precipitation  
Precipitation 1.30 in 0.35 in - ()
Sea Level Pressure  
Sea Level Pressure 29.96 in    
Wind  
Wind Speed 4 mph ()    
Max Wind Speed 13 mph    
Max Gust Speed -    
Visibility 6.7 miles    
Events Fog , Rain , Thunderstorm    
Averages and records for this station are not official NWS values.
T = Trace of Precipitation, MM = Missing Value Source: Averaged Metar Reports

Daily Weather History Graph

Daily Weather History Graph

Search for Another Location

Airport:

Trip Planner

Search our weather history database for the weather conditions in past years. The results will help you decide how hot, cold, wet, or windy it might be!

Date:

Astronomy

Jun. 04, 2013 Rise Set
Actual Time 5:14 AM CST 5:55 PM CST
Civil Twilight 4:51 AM CST 6:18 PM CST
Nautical Twilight 4:25 AM CST 6:45 PM CST
Astronomical Twilight 3:57 AM CST 7:12 PM CST
Moon 2:10 AM CST (6/4) 2:51 PM CST (6/4)
Length of Visible Light 13h 26m
Length of Day
12h 40m
Waning Crescent, 14% of the Moon is Illuminated
Jun 4
Waning Crescent
Jun 8
New
Jun 16
First Quarter
Jun 23
Full
Jun 29
Last Quarter

Hourly Weather History & Observations

Time (CST) Temp. Heat Index Dew Point Humidity Pressure Visibility Wind Dir Wind Speed Gust Speed Precip Events Conditions
12:00 AM 71 °F - 69 °F 91% 29.81 in 12 mi South 4.6 mph - -   Partly Cloudy
12:00 AM 69.8 °F - 69.8 °F 100% 30.00 in 6.2 mi South 4.6 mph - N/A   Scattered Clouds
1:00 AM 69.8 °F - 66.2 °F 88% 29.98 in 6.2 mi Calm Calm - N/A   Scattered Clouds
2:00 AM 68.0 °F - 66.2 °F 94% 29.97 in 6.2 mi East 3.5 mph - N/A   Scattered Clouds
3:00 AM 67 °F - 64 °F 85% 29.82 in 12 mi North 3.5 mph - -   Partly Cloudy
3:00 AM 68.0 °F - 64.4 °F 88% 29.97 in - North 3.5 mph - N/A   Clear
4:00 AM 66.2 °F - 64.4 °F 94% 29.99 in - South 5.8 mph - N/A   Clear
5:00 AM 66.2 °F - 62.6 °F 88% 30.01 in - South 4.6 mph - N/A   Clear
6:00 AM 68 °F - 63 °F 80% 29.87 in 12 mi NNE 5.8 mph - -   Partly Cloudy
6:00 AM 68.0 °F - 62.6 °F 83% 30.02 in - NNE 5.8 mph - N/A   Clear
7:00 AM 71.6 °F - 64.4 °F 78% 30.02 in - ESE 3.5 mph - N/A   Clear
8:00 AM 78.8 °F - 62.6 °F 57% 30.02 in - East 4.6 mph - N/A   Clear
9:00 AM 83 °F - 63 °F 41% 29.84 in 12 mi NNE 4.6 mph - -   Haze
9:00 AM 82.4 °F 83.4 °F 62.6 °F 51% 30.01 in - NNE 4.6 mph - N/A   Clear
9:43 AM 84.2 °F 86.6 °F 66.2 °F 55% 29.99 in - SW 6.9 mph - N/A   Clear
10:00 AM 82.4 °F 85.4 °F 68.0 °F 62% 29.99 in 6.2 mi SW 8.1 mph - N/A   Mostly Cloudy
11:00 AM 82.4 °F 85.4 °F 68.0 °F 62% 29.99 in 6.2 mi WSW 9.2 mph - N/A   Mostly Cloudy
12:00 PM 81 °F - 71 °F 65% 29.81 in 12 mi WSW 12.7 mph - -   Haze
12:00 PM 80.6 °F 84.6 °F 71.6 °F 74% 29.97 in 6.2 mi WSW 12.7 mph - N/A   Mostly Cloudy
1:00 PM 77.0 °F - 69.8 °F 78% 29.96 in 6.2 mi WSW 11.5 mph - N/A   Mostly Cloudy
2:00 PM 73.4 °F - 69.8 °F 88% 29.96 in 5.0 mi WSW 9.2 mph - N/A Fog Fog
2:13 PM 73.4 °F - 66.2 °F 78% 29.96 in 5.0 mi WNW 6.9 mph - N/A Rain , Thunderstorm Thunderstorms and Rain
3:00 PM 68 °F - 66 °F 91% 29.80 in 2 mi NW 8.1 mph - - Rain , Thunderstorm Thunderstorms and Rain
3:00 PM 68.0 °F - 66.2 °F 94% 29.95 in 1.6 mi NW 8.1 mph - N/A Rain , Thunderstorm Thunderstorms and Rain
3:30 PM 68.0 °F - 66.2 °F 94% 29.95 in 6.2 mi NW 2.3 mph - N/A   Mostly Cloudy
4:00 PM 68.0 °F - 66.2 °F 94% 29.96 in 6.2 mi SE 3.5 mph - N/A Rain Light Rain
5:00 PM 68.0 °F - 68.0 °F 100% 29.99 in 3.1 mi WSW 2.3 mph - N/A Rain Light Rain
6:00 PM 69 °F - 67 °F 93% 29.89 in 3 mi Calm Calm - - Rain Light Rain
6:00 PM 68.0 °F - 68.0 °F 100% 30.02 in 3.1 mi Calm Calm - N/A Rain , Thunderstorm Rain
7:00 PM 68.0 °F - 66.2 °F 94% 30.03 in 3.7 mi East 5.8 mph - N/A Fog , Rain Light Rain
8:00 PM 68.0 °F - 66.2 °F 94% 30.02 in 6.2 mi East 3.5 mph - N/A   Mostly Cloudy
9:00 PM 68 °F - 67 °F 94% 29.85 in 12 mi ESE 2.3 mph - -   Mostly Cloudy
9:00 PM 68.0 °F - 66.2 °F 94% 30.02 in 6.2 mi Calm Calm - N/A   Mostly Cloudy
10:00 PM 68.0 °F - 66.2 °F 94% 30.01 in 6.2 mi ESE 2.3 mph - N/A   Mostly Cloudy
11:00 PM 66.2 °F - 64.4 °F 94% 29.99 in - ENE 5.8 mph - N/A   Clear